Location: Cruquius
(52.3348°N, 4.6319°E)
Time: 08:25:15
(UTC+00:00)

Terra - Pass Details

Date: 12 May 2021
Orbit: 701 x 703 km, 98.2° (Epoch: 20 June)

Event Time Altitude Azimuth Distance (km) Brightness Sun altitude
Exits shadow 22:15:59 17° 209° (SSW) 1,728 3.5 -17.1°
Maximum altitude 22:18:59 34° 265° (W) 1,162 3.0 -17.2°
Drops below altitude 10° 22:23:20 10° 330° (NNW) 2,184 5.6 -17.5°
Sets 22:25:48 0° 339° (NNW) 3,107 6.9 -17.6°
